Location: Hradec Kralove
(50.2170°N, 15.8330°E)
Time: 12:24:55
(UTC+01:00)

ISS - Pass Details

Date: 16 November 2024
Orbit: 411 x 421 km, 51.6° (Epoch: 05 December)

Event Time Altitude Azimuth Distance (km) Brightness Sun altitude
Rises 17:41:43 0° 213° (SSW) 2,370 0.8 -14.5°
Reaches altitude 10° 17:44:03 10° 199° (SSW) 1,509 -0.5 -14.9°
Maximum altitude 17:46:50 24° 144° (SE) 937 -2.2 -15.3°
Enters shadow 17:47:24 22° 128° (SE) 968 -2.3 -15.4°
